Flag for Germany Weather past 2 weeks in Hockenheim, Baden-Württemberg, Germany

Now
75 °F

Sunny.


Feels Like: 78 °F
Forecast: 61 / 82 °F
Wind: 6 mph from Northwest

Location: Baden Wurttemberg - Neuostheim

Current Time: Jul 26, 2014 at 9:53:06 PM

Latest Report: Jul 26, 2014 at 7:50 PM


Visibility: 10 mi

Pressure: 29.92 "Hg

Humidity: 54%

Dew point: 57 °F

Location of HockenheimLocation

Historic Weather in Hockenheim — Graph

°F

Hockenheim temperature yesterday

Maximum temperature yesterday: 81 °F (at 4:20 PM)
Minimum temperature yesterday: 61 °F (at 5:50 AM)
Average temperature yesterday: 72 °F

Past Weeks' High & Low Weather Summary

 TemperatureHumidityPressure
High93 °F (Jul 18, 4:50 PM)100% (Jul 21, 5:50 AM)30.18 "Hg (Jul 21, 5:50 AM)
Low59 °F (Jul 15, 5:20 AM)20% (Jul 18, 5:50 PM)29.80 "Hg (Jul 13, 4:20 PM)
Average75 °F60%29.97 "Hg
* Reported Jul 11 7:20 PM — Jul 26 7:50 PM, Hockenheim, Weather by CustomWeather, © 2014

Note: Actual official high and low records may vary slightly from our data, if they occured in-between our weather recording intervals... More about our weather records

Advertising

Hockenheim weather history for previous 24 hours

 ConditionsComfort  
Time TempWeatherWind HumidityBarometerVisibility
7:50 PM
Jul 26
75 °FSunny.6 mph54%29.92 "Hg10 mi
7:20 PM75 °FSunny.10 mph54%29.92 "Hg10 mi
6:50 PM77 °FPassing clouds.7 mph51%29.92 "HgN/A
6:20 PM77 °FSunny.8 mph47%29.92 "Hg10 mi
5:50 PM77 °FSunny.9 mph47%29.92 "Hg10 mi
5:20 PM77 °FPassing clouds.9 mph44%29.92 "HgN/A
4:50 PM79 °FPassing clouds.9 mph51%29.92 "HgN/A
4:20 PM77 °FScattered clouds.9 mph57%29.92 "HgN/A
3:50 PM77 °FPassing clouds.8 mph57%29.92 "HgN/A
3:20 PM77 °FPassing clouds.6 mph61%29.92 "HgN/A
2:50 PM77 °FPassing clouds.7 mph61%29.92 "HgN/A
2:20 PM75 °FPassing clouds.5 mph61%29.92 "HgN/A
1:50 PM75 °FPassing clouds.3 mph61%29.92 "HgN/A
1:20 PM75 °FSunny.3 mph61%29.92 "Hg10 mi
12:50 PM77 °FPassing clouds.2 mph61%29.92 "HgN/A
12:20 PM75 °FSunny.3 mph61%29.92 "Hg10 mi
11:50 AM73 °FPassing clouds.5 mph65%29.92 "HgN/A
11:20 AM73 °FPassing clouds.6 mph65%29.92 "HgN/A
10:50 AM72 °FPassing clouds.5 mph69%29.92 "HgN/A
10:20 AM72 °FPassing clouds.5 mph69%29.92 "HgN/A
9:50 AM70 °FSunny.2 mph73%29.92 "Hg10 mi
9:20 AM68 °FSunny.2 mph78%29.92 "Hg10 mi
8:50 AM66 °FPassing clouds.5 mph78%29.92 "HgN/A
8:20 AM64 °FSunny.3 mph83%29.92 "Hg10 mi
7:50 AM64 °FPassing clouds.5 mph83%29.89 "HgN/A
9:20 PM
Jul 25
72 °FPassing clouds.7 mph65%29.86 "HgN/A
Weather by CustomWeather, © 2014

See weather overviewHow to use our weather pages